Weather in La Clusaz

France     45°54′20″N   6°25′37″E
temp.,
°C
wind,
m/s
gust,
m/s
humid.,
%
clouds,
%
prec.,
mm/h
press.,
hPa
HPBL,
m
28 november, sun
sun2801:00−5s2294100 0.0 99992
04:00−5ssw129498 0.1 99984
07:00−6ssw119799 0.2 100021
10:00−3wsw1282100 0.1 999497
13:00−3wnw2291100 1.4 999423
16:00−3wnw2295100 2.3 1000316
19:00−4wnw2297100 5.3 1001202
22:00−4nw1297100 1.2 1003129
29 november, mon
mon2901:00−5wnw1298100 2.3 1003133
04:00−5nw2298100 2.3 1003195
07:00−5nw2398100 4.8 1006270
10:00−4nnw2496100 2.9 1009383
13:00−3nnw3490100 4.9 1011606
16:00−5nnw239452 0.7 101572
19:00−10e229796 0.9 102117
22:00−11e229586 0.1 102426
30 november, tue
tue3001:00−13ese229187 0.1 102723
04:00−13ese32908 0.0 102919
07:00−13ese328826 0.0 103019
10:00−6ese11774 0.0 102782
13:00−2wnw10755 0.0 1025379
16:00−3wnw019427 0.0 102610
19:00−9se229113 0.0 102916
22:00−9se22864 0.0 102818
1 december, wed
wed101:00−8se32845 0.0 102617
04:00−8se32854 0.0 102420
07:00−7se32858 0.0 102125
10:00−1s238297 0.0 101786
13:00+2s349394 0.0 1012232
16:00+1s3493100 0.0 100987
19:00−1s2499100 2.0 1009182
22:00−1ssw1299100 5.5 1008113
2 december, thu
thu201:00−1wsw1299100 12.2 1007103
04:00−2wnw119994 2.5 100698
07:00−3s1198100 2.7 100669
10:00−2s119497 0.0 1006248
13:00−1w1196100 0.1 1005345
16:00−1wnw2399100 2.4 1005205
19:00−3nw2399100 6.2 1008306
22:00−5nw3498100 2.2 1011382